Regional Weather Roundup
Issued by NWS

Home | Current Version | Previous Version | Text Only | Print | Product List | Glossary Off
Versions: 1 2 3 4 5 6 7 8 9 10 11 12 13 14 15 16 17 18 19 20 21 22 23 24 25 26 27 28 29 30 31 32 33 34 35 36 37 38 39 40 41 42 43 44 45 46 47 48 49 50

000
ASUS43 KLOT 210906
RWRIL

ILLINOIS REGIONAL WEATHER ROUNDUP
NATIONAL WEATHER SERVICE CHICAGO/ROMEOVILLE IL
400 AM CDT THU AUG 21 2014

NOTE: "FAIR" INDICATES FEW OR NO CLOUDS BELOW 12,000 FEET WITH NO
SIGNIFICANT WEATHER AND/OR OBSTRUCTIONS TO VISIBILITY.

* THESE STATIONS ARE NOT UNDER NWS QUALITY CONTROL. THEY ALSO MAY NOT
  REPORT WEATHER SUCH AS PRECIPITATION OR FOG.

ILZ001-002-007-009-015-016-024-211000-
NORTHWEST ILLINOIS

CITY           SKY/WX    TMP DP  RH WIND       PRES   REMARKS
MOLINE         MOCLDY    71  69  93 E5        29.89F
STERLING*      CLOUDY    70  66  88 S5        29.92S
SAVANNA*       CLOUDY    72  68  88 SE6       29.90F
$$

ILZ003-004-008-010-011-017-018-211000-
NORTH CENTRAL ILLINOIS

CITY           SKY/WX    TMP DP  RH WIND       PRES   REMARKS
ROCKFORD       TSTM      71  67  87 E5        29.94F
FREEPORT*      CLOUDY    70  68  93 SE6       29.94F THUNDER
ROCHELLE*      CLOUDY    70  67  90 CALM      29.93F
DE KALB*       CLOUDY    68  66  92 S3        29.96S
PERU*          MOCLDY    71  68  91 SE6       29.94S
$$

ILZ005-006-012>014-019>023-211000-
NORTHEAST ILLINOIS

CITY           SKY/WX    TMP DP  RH WIND       PRES   REMARKS
CHICAGO-OHARE  CLOUDY    71  65  81 CALM      29.94F
CHICAGO-MIDWAY MOCLDY    73  70  90 SW5       29.93F
AURORA         CLOUDY    70  67  90 SE3       29.94S
LANSING*       CLOUDY    69  67  93 SE3       29.96S
JOLIET*        CLOUDY    70  68  91 CALM      29.95S
WAUKEGAN       MOCLDY    67  65  93 CALM      29.93S FOG
DUPAGE AIRPORT MOCLDY    71  68  90 S3        29.95S
KANKAKEE*      MOCLDY    70  68  96 CALM      29.95F
WHEELING       PTCLDY    74  66  76 SW3       29.95F
MORRIS*        CLOUDY    71  71  99 SE3       29.94S
ROMEOVILLE*    HVY RAIN  70  70 100 SE8       29.95S
NORTHERLY ISL    N/A     72  67  84 S3          N/A
$$

LMZ740>746-211000-
SOUTHERN LAKE MICHIGAN

STATION/POSITION SKY/WX   TEMP    WIND        PRES    VSBY  WAVE
                          AIR SEA DIR/SP/G                  HT/PER
                          (F)     (DEG/KT/KT) (MB)    (MI)  (FT/S)
SOUTHERN BUOY              68 68   60/  6/  6 1013.5F         0
WAUKEGAN HARBOR            70      CALM  /  1   N/A
HARRISON CRIB              72     200/ 12/ 13   N/A
BURNHAM HARBOR             72     170/  3/  8   N/A
CALUMET HARBOR             70     170/  4/  6 1012.7F
BURNS HARBOR               73     210/ 12/ 13   N/A
MICHIGAN CITY              72     190/ 10/ 14   N/A
MICHIGAN CITY 6N           72 71  220/ 10/ 14   N/A           1/ 2
ST. JOSEPH                 72 71  190/  8/  8   N/A           1/ 2
$$

ILZ025>027-034>036-040-047-049-050-058-095>099-211000-
WEST-CENTRAL ILLINOIS

CITY           SKY/WX    TMP DP  RH WIND       PRES   REMARKS
QUINCY         CLEAR     73  70  90 S9        29.93S
GALESBURG*     MOCLDY    72  70  95 S6        29.92S
MACOMB*        PTCLDY    72  70  95 S6        29.95S
JACKSONVILLE*  CLEAR     75  72  91 S8        29.96R
PITTSFIELD*    CLEAR     74  71  90 S5        29.96S
$$

ILZ028>032-037-038-041>044-048-051>054-059>061-211000-
CENTRAL ILLINOIS

CITY           SKY/WX    TMP DP  RH WIND       PRES   REMARKS
PONTIAC        MOCLDY    72  72 100 CALM      29.94F
DECATUR        CLEAR     74  70  87 SW14      29.95S
PEORIA         LGT RAIN  73  69  87 S6        29.93F
LACON*         PTCLDY    70  68  93 SE5       29.92F
LINCOLN*       MOCLDY    73  70  92 CALM      29.91F
SPRINGFIELD    PTCLDY    76  72  87 SW8       29.94F
TAYLORVILLE    PTCLDY    72  70  94 S10       29.95F
$$

ILZ033-039-045-046-055>057-062-063-211000-
EAST-CENTRAL ILLINOIS

CITY           SKY/WX    TMP DP  RH WIND       PRES   REMARKS
CHAMPAIGN      PTCLDY    70  68  93 S3        29.96S
DANVILLE*      RAIN      69  68  98 E3        29.95S
RANTOUL*       PTCLDY    73  67  82 CALM      29.97R
MATTOON        CLOUDY    72  67  84 S9        29.97R
PARIS*         CLOUDY    71  70  95 S5        29.98S
$$

ILZ079-100>102-211000-
SOUTHWEST ILLINOIS

CITY           SKY/WX    TMP DP  RH WIND       PRES   REMARKS
ALTON          CLEAR     71  71 100 S3        29.98S
BELLEVILLE     MOCLDY    75  75 100 CALM      29.97R
CAHOKIA*       PTCLDY    74  73  97 CALM      29.97R
SPARTA*        MOCLDY    77  74  88 S6        30.00R
$$

ILZ064>066-069>071-074>076-080>082-084>086-088>090-092>094-211000-
SOUTH-CENTRAL ILLINOIS

CITY           SKY/WX    TMP DP  RH WIND       PRES   REMARKS
CARBONDALE     MOCLDY    78  72  81 S7        30.00R HX  80
CAIRO*         MOCLDY    78  73  83 CALM      30.02R HX  80
MARION         MOCLDY    79  73  83 S6        30.01R HX  82
MT. VERNON     MOCLDY    73  68  83 SE7       30.01S
CENTRALIA*     MOCLDY    73  71  91 S7        29.99S
SALEM*         PTCLDY    75  74  94 S6        29.99S
$$

ILZ067-068-072-073-078-083-087-091-211000-
SOUTHEAST ILLINOIS

CITY           SKY/WX    TMP DP  RH WIND       PRES   REMARKS
LAWRENCEVILLE  CLOUDY    72  67  84 SW9       29.99R
FLORA*         CLOUDY    72  70  94 S8        30.00S
FAIRFIELD*     CLOUDY    73  72  94 S6        30.00S
HARRISBURG*    CLOUDY    74  74  99 E5        30.03S
ROBINSON*      MOCLDY    70  68  94 S6        29.99S
CARMI*         CLOUDY    73  72  94 S6        30.01F
$$

ABBREVIATIONS USED IN REMARKS
   TC - TEMPERATURE IN CELSIUS
  WCI - WIND CHILL INDEX
   HX - HEAT INDEX
  VSB - VISIBILITY
$$



USA.gov is the U.S. government's official web portal to all federal, state and local government web resources and services.